Back to catalog

CZ-6A DEB

AliveSSO
NORAD 54309·DEBRIS·🇨🇳 China

Launched Nov 11, 2022 from Taiyuan Satellite Launch Center

Loading…

Next Passes (next 24 hours)

TLE

FreshSource: Space-Track

Epoch: Sep 14, 2026, 23:11 UTC

1 54309U 22151BC  26257.96657310  .00000260  00000-0  16251-3 0  9997
2 54309  98.8344 260.8336 0037743  65.9928 294.5188 14.12728767197379

Track CZ-6A DEB in real time with AllMySat

Download on the App Store